[[{"header":{"parameterUnit":"m.s-1","parameterCategory":1,"la1":30.2992,"la2":30.254,"lo1":-89.0895,"lo2":-89.0443,"dy":0.0025,"dx":0.0025,"nx":19,"ny":19,"refTime":"2026-04-01T21:00:00:Z","depth":0,"parameterNumber":2,"parameterNumberName":"U-component_of_WINDS"},"data":[0,0,0,-3.9529,-3.9531,-3.9634,-3.9635,-3.9766,-3.9768,0,0,0,0,0,0,0,0,0,0,0,-3.95,-3.95,-3.9529,-3.9532,-3.9634,-3.9635,-3.9766,-3.9768,0,0,0,0,0,0,0,0,0,0,0,-3.9499,-3.95,-3.9501,-3.9532,-3.9634,-3.9635,-3.9766,-3.9688,0,0,0,0,0,0,0,0,0,0,-3.9588,-3.9562,-3.95,-3.9501,-3.9533,-3.9634,-3.9635,-3.9684,-3.9693,-3.972,0,-3.9745,0,-3.9759,-3.9777,-3.9777,0,0,0,-3.9531,-3.9555,-3.9582,-3.9502,-3.9534,-3.9634,-3.9588,-3.9689,-3.9699,-3.9732,-3.9747,-3.9752,-3.9761,-3.9777,-3.9778,-3.9941,-3.9941,0,0,-3.9525,-3.9518,-3.9575,-3.9588,-3.9573,-3.9584,-3.9591,-3.9695,-3.9711,-3.9748,-3.9755,-3.9763,-3.9778,-3.9779,-3.994,-3.9941,0,0,0,-3.9509,-3.9514,-3.9539,-3.9583,-3.9601,-3.9587,-3.9595,-3.9706,-3.9715,-3.9757,-3.9765,-3.9779,-3.9781,-3.9939,-3.994,-3.9972,0,0,0,-3.9506,-3.9505,-3.9536,-3.9533,-3.9599,-3.9655,-3.9604,-3.9708,-3.972,-3.9764,-3.9779,-3.9782,-3.9938,-3.994,-3.9969,-3.9987,0,0,0,-3.9493,-3.9503,-3.9519,-3.9533,-3.9577,-3.9654,-3.9668,-3.9711,-3.9725,-3.9777,-3.9782,-3.9937,-3.9939,-3.9967,-3.9983,-4.0026,0,0,0,-3.9476,-3.9546,-3.9519,-3.96,-3.9576,-3.9674,-3.9668,-3.9741,-3.979,-3.978,-3.9938,-3.994,-3.9966,-3.998,-4.0023,-4.0059,-4.0074,0,0,-3.956,-3.9555,-3.9604,-3.9583,-3.9684,-3.9659,-3.9764,-3.9815,-3.9826,-3.9902,-3.9906,-3.997,-3.9982,-4.0025,-4.0166,-4.0178,0,0,0,-3.9628,-3.9662,-3.9691,-3.9737,-3.9779,-3.9815,-3.9851,-3.987,-3.9935,-3.9864,-3.9999,-4.0007,-4.0032,-4.0049,-4.006,-4.0081,-3.9949,-3.9948,-3.9948,-3.9734,-3.9746,-3.9826,-3.9851,-3.9896,-3.9933,-3.9971,-4.0003,-4.0001,-4.0033,-4.0054,-4.0138,-4.0158,-4.0166,-4.0188,-4.0077,-4.0077,-4.0077,-4.0077,-3.9855,-3.9905,-3.9903,-3.9979,-3.9991,-4.0056,-4.0095,-4.0092,-4.0153,-4.0123,-4.0146,-4.0109,-4.0178,-4.0198,-4.0079,-4.0079,-4.0079,-4.0078,-4.0078,-3.9923,-3.9949,-3.9973,-4.0042,-4.0094,-4.0117,-4.0176,-4.0186,-4.0195,-4.0218,-4.024,-4.024,-4.0238,-4.0229,-4.0229,-4.023,-4.023,-4.023,-4.023,-3.9983,-4.0009,-4.0058,-4.0109,-4.0141,-4.0183,-4.0223,-4.0254,-4.0291,-4.0293,-4.0293,-4.0287,-4.0185,-4.0157,-4.0235,-4.0234,-4.0233,-4.0233,-4.0233,-4.0096,-4.0073,-4.0148,-4.0179,-4.0241,-4.0291,-4.0305,-4.0367,-4.0395,-4.0423,-4.0414,-4.0338,-4.0333,-4.0325,-4.0302,-4.0413,-4.0413,-4.0413,-4.0413,-4.0151,-4.0151,-4.023,-4.028,-4.0331,-4.035,-4.0434,-4.0467,-4.0496,-4.0514,-4.0501,-4.0472,-4.0464,-4.0464,-4.0453,-4.0431,-4.0572,-4.0572,-4.0573,-4.022,-4.0226,-4.0294,-4.0324,-4.0374,-4.0416,-4.0495,-4.0552,-4.0581,-4.0579,-4.0527,-4.0521,-4.0475,-4.046,-4.0452,-4.0435,-4.0396,0,0]},{"header":{"parameterUnit":"m.s-1","parameterCategory":1,"la1":30.2992,"la2":30.254,"lo1":-89.0895,"lo2":-89.0443,"dy":0.0025,"dx":0.0025,"nx":19,"ny":19,"refTime":"2026-04-01T21:00:00:Z","depth":0,"parameterNumber":3,"parameterNumberName":"V-component_of_WINDS"},"data":[0,0,0,2.9756,2.9757,2.9804,2.9804,2.9864,2.9865,0,0,0,0,0,0,0,0,0,0,0,2.9743,2.9743,2.9756,2.9757,2.9804,2.9804,2.9864,2.9865,0,0,0,0,0,0,0,0,0,0,0,2.9742,2.9743,2.9743,2.9757,2.9804,2.9804,2.9864,2.9829,0,0,0,0,0,0,0,0,0,0,2.9783,2.9771,2.9743,2.9743,2.9758,2.9804,2.9804,2.9827,2.9831,2.9843,0,2.9855,0,2.9861,2.9869,2.9869,0,0,0,2.9757,2.9767,2.978,2.9743,2.9758,2.9804,2.9783,2.9829,2.9833,2.9849,2.9856,2.9858,2.9862,2.9869,2.987,2.9947,2.9947,0,0,2.9754,2.9751,2.9777,2.9783,2.9776,2.9781,2.9784,2.9832,2.9839,2.9856,2.9859,2.9863,2.987,2.987,2.9946,2.9947,0,0,0,2.9747,2.9749,2.976,2.9781,2.9789,2.9783,2.9786,2.9837,2.9841,2.986,2.9864,2.987,2.9871,2.9946,2.9946,2.9963,0,0,0,2.9745,2.9745,2.9759,2.9758,2.9788,2.9813,2.979,2.9838,2.9843,2.9863,2.987,2.9871,2.9945,2.9946,2.9962,2.9972,0,0,0,2.9739,2.9744,2.9751,2.9757,2.9778,2.9813,2.982,2.9839,2.9845,2.9869,2.9872,2.9945,2.9946,2.9961,2.9969,2.9992,0,0,0,2.9731,2.9763,2.9751,2.9789,2.9777,2.9823,2.9819,2.9853,2.9876,2.987,2.9945,2.9946,2.996,2.9968,2.9991,3.0011,3.0019,0,0,2.977,2.9768,2.979,2.9781,2.9829,2.9816,2.9866,2.9889,2.9893,2.9929,2.9931,2.9962,2.9969,2.9992,3.0064,3.007,0,0,0,2.9801,2.9818,2.9831,2.9853,2.9873,2.9891,2.9907,2.9916,2.9946,2.9911,2.9977,2.9981,2.9994,3.0004,3.0009,3.0022,2.9951,2.995,2.995,2.985,2.9856,2.9895,2.9908,2.9929,2.9947,2.9966,2.9981,2.9979,2.9995,3.0005,3.0048,3.0059,3.0063,3.0076,3.0016,3.0016,3.0016,3.0016,2.9907,2.9932,2.9932,2.997,2.9977,3.0008,3.0027,3.0026,3.0056,3.004,3.0052,3.0034,3.007,3.0082,3.0017,3.0017,3.0017,3.0017,3.0016,2.994,2.9953,2.9966,3.0001,3.0027,3.0039,3.0069,3.0074,3.0078,3.009,3.0103,3.0102,3.0104,3.0096,3.0096,3.0096,3.0096,3.0096,3.0097,2.997,2.9983,3.0008,3.0035,3.0051,3.0074,3.0094,3.0111,3.013,3.0131,3.0131,3.0128,3.0073,3.0059,3.0099,3.0098,3.0098,3.0098,3.0098,3.0026,3.0015,3.0054,3.0072,3.0104,3.0132,3.0138,3.0172,3.0186,3.0201,3.0197,3.0155,3.0152,3.0148,3.0137,3.0195,3.0195,3.0195,3.0195,3.0054,3.0055,3.0098,3.0125,3.0152,3.0163,3.0209,3.0226,3.0242,3.0251,3.0244,3.0229,3.0225,3.0225,3.0219,3.0209,3.0284,3.0284,3.0284,3.0091,3.0094,3.0132,3.0149,3.0176,3.0199,3.0243,3.0274,3.0289,3.0288,3.0259,3.0256,3.0232,3.0224,3.0221,3.0211,3.0192,0,0]}]]